Time,TemperatureF,DewpointF,PressureIn,WindDirection,WindDirectionDegrees,WindSpeedMPH,WindSpeedGustMPH,Humidity,HourlyPrecipIn,Conditions,Clouds,dailyrainin,SoftwareType,DateUTC
2013-02-15 00:01:00,31.0,23.0,-100.00,ESE,105,1.0,4.0,70,0.00,,,0.00,,2013-02-15 07:01:00,
2013-02-15 00:11:00,31.0,23.0,-100.00,ESE,105,1.0,4.0,70,0.00,,,0.00,,2013-02-15 07:11:00,
2013-02-15 00:41:00,32.0,22.0,-100.00,NNE,33,8.0,13.0,67,0.00,,,0.00,,2013-02-15 07:41:00,
2013-02-15 00:52:00,32.0,22.0,-100.00,NNE,33,8.0,13.0,67,0.00,,,0.00,,2013-02-15 07:52:00,
2013-02-15 01:01:00,32.0,22.0,-100.00,NNE,33,8.0,13.0,67,0.00,,,0.00,,2013-02-15 08:01:00,
2013-02-15 01:11:00,32.0,22.0,-100.00,NNE,33,8.0,13.0,67,0.00,,,0.00,,2013-02-15 08:11:00,
2013-02-15 01:41:00,32.0,21.0,-100.00,North,10,10.0,16.0,65,0.00,,,-99.99,,2013-02-15 08:41:00,
2013-02-15 01:53:00,32.0,21.0,-100.00,North,10,10.0,16.0,65,0.00,,,-99.99,,2013-02-15 08:53:00,
2013-02-15 02:01:00,32.0,21.0,-100.00,North,10,10.0,16.0,65,0.00,,,-99.99,,2013-02-15 09:01:00,
2013-02-15 02:12:00,32.0,21.0,-100.00,North,10,10.0,16.0,65,0.00,,,-99.99,,2013-02-15 09:12:00,
2013-02-15 02:41:00,31.0,22.0,-100.00,North,8,7.0,11.0,68,0.00,,,-99.99,,2013-02-15 09:41:00,
2013-02-15 02:52:00,31.0,22.0,-100.00,North,8,7.0,11.0,68,0.00,,,-99.99,,2013-02-15 09:52:00,
2013-02-15 03:01:00,31.0,22.0,-100.00,North,8,7.0,11.0,68,0.00,,,-99.99,,2013-02-15 10:01:00,
2013-02-15 03:11:00,31.0,22.0,-100.00,North,8,7.0,11.0,68,0.00,,,-99.99,,2013-02-15 10:11:00,
2013-02-15 03:41:00,31.0,23.0,-100.00,NE,56,7.0,12.0,72,0.00,,,-99.99,,2013-02-15 10:41:00,
2013-02-15 03:52:00,31.0,23.0,-100.00,NE,56,7.0,12.0,72,0.00,,,-99.99,,2013-02-15 10:52:00,
2013-02-15 04:01:00,31.0,23.0,-100.00,NE,56,7.0,12.0,72,0.00,,,-99.99,,2013-02-15 11:01:00,
2013-02-15 04:11:00,31.0,23.0,-100.00,NE,56,7.0,12.0,72,0.00,,,-99.99,,2013-02-15 11:11:00,
2013-02-15 04:42:00,30.0,23.0,-100.00,NNE,31,8.0,14.0,73,0.00,,,0.00,,2013-02-15 11:42:00,
2013-02-15 04:52:00,30.0,23.0,-100.00,NNE,31,8.0,14.0,73,0.00,,,0.00,,2013-02-15 11:52:00,
2013-02-15 05:01:00,30.0,23.0,-100.00,NNE,31,8.0,14.0,73,0.00,,,0.00,,2013-02-15 12:01:00,
2013-02-15 05:11:00,30.0,23.0,-100.00,NNE,31,8.0,14.0,73,0.00,,,0.00,,2013-02-15 12:11:00,
2013-02-15 06:41:00,27.0,22.0,-100.00,West,265,3.0,10.0,81,0.01,,,0.01,,2013-02-15 13:41:00,
2013-02-15 06:52:00,27.0,22.0,-100.00,West,265,3.0,10.0,81,0.01,,,0.01,,2013-02-15 13:52:00,
2013-02-15 07:01:00,27.0,22.0,-100.00,West,265,3.0,10.0,81,0.01,,,0.01,,2013-02-15 14:01:00,
2013-02-15 07:11:00,27.0,22.0,-100.00,West,265,3.0,10.0,81,0.01,,,0.01,,2013-02-15 14:11:00,
2013-02-15 07:41:00,23.0,19.0,-100.00,West,270,4.0,5.0,88,0.00,,,0.01,,2013-02-15 14:41:00,
2013-02-15 07:52:00,23.0,19.0,-100.00,West,270,4.0,5.0,88,0.00,,,0.01,,2013-02-15 14:52:00,
2013-02-15 08:01:00,23.0,19.0,-100.00,West,270,4.0,5.0,88,0.00,,,0.01,,2013-02-15 15:01:00,
2013-02-15 08:11:00,23.0,19.0,-100.00,West,270,4.0,5.0,88,0.00,,,0.01,,2013-02-15 15:11:00,
2013-02-15 08:42:00,24.0,20.0,-100.00,WSW,253,2.0,4.0,86,0.00,,,0.01,,2013-02-15 15:42:00,
2013-02-15 08:52:00,24.0,20.0,-100.00,WSW,253,2.0,4.0,86,0.00,,,0.01,,2013-02-15 15:52:00,
2013-02-15 09:01:00,24.0,20.0,-100.00,WSW,253,2.0,4.0,86,0.00,,,0.01,,2013-02-15 16:01:00,
2013-02-15 09:11:00,24.0,20.0,-100.00,WSW,253,2.0,4.0,86,0.00,,,0.01,,2013-02-15 16:11:00,
2013-02-15 09:42:00,31.0,23.0,-100.00,SSW,206,3.0,5.0,72,0.00,,,0.01,,2013-02-15 16:42:00,
2013-02-15 09:52:00,31.0,23.0,-100.00,SSW,206,3.0,5.0,72,0.00,,,0.01,,2013-02-15 16:52:00,
2013-02-15 10:01:00,31.0,23.0,-100.00,SSW,206,3.0,5.0,72,0.00,,,0.01,,2013-02-15 17:01:00,
2013-02-15 10:11:00,31.0,23.0,-100.00,SSW,206,3.0,5.0,72,0.00,,,0.01,,2013-02-15 17:11:00,
2013-02-15 10:52:00,34.0,23.0,-100.00,NE,46,2.0,5.0,63,-99.99,,,0.00,,2013-02-15 17:52:00,
2013-02-15 11:01:00,34.0,23.0,-100.00,NE,46,2.0,5.0,63,-99.99,,,0.00,,2013-02-15 18:01:00,
2013-02-15 11:11:00,34.0,23.0,-100.00,NE,46,2.0,5.0,63,-99.99,,,0.00,,2013-02-15 18:11:00,
2013-02-15 11:41:00,37.0,22.0,-100.00,East,79,2.0,5.0,56,0.00,,,0.00,,2013-02-15 18:41:00,
2013-02-15 11:52:00,37.0,22.0,-100.00,East,79,2.0,5.0,56,0.00,,,0.00,,2013-02-15 18:52:00,
2013-02-15 12:01:00,37.0,22.0,-100.00,East,79,2.0,5.0,56,0.00,,,0.00,,2013-02-15 19:01:00,
2013-02-15 12:11:00,37.0,22.0,-100.00,East,79,2.0,5.0,56,0.00,,,0.00,,2013-02-15 19:11:00,
2013-02-15 12:41:00,38.0,21.0,-100.00,NE,36,5.0,8.0,51,0.00,,,0.00,,2013-02-15 19:41:00,
2013-02-15 12:52:00,38.0,21.0,-100.00,NE,36,5.0,8.0,51,0.00,,,0.00,,2013-02-15 19:52:00,
2013-02-15 13:01:00,38.0,21.0,-100.00,NE,36,5.0,8.0,51,0.00,,,0.00,,2013-02-15 20:01:00,
2013-02-15 13:11:00,38.0,21.0,-100.00,NE,36,5.0,8.0,51,0.00,,,0.00,,2013-02-15 20:11:00,
2013-02-15 13:42:00,39.0,23.0,-100.00,North,10,6.0,11.0,54,0.00,,,0.00,,2013-02-15 20:42:00,
2013-02-15 13:52:00,39.0,23.0,-100.00,North,10,6.0,11.0,54,0.00,,,0.00,,2013-02-15 20:52:00,
2013-02-15 14:01:00,39.0,23.0,-100.00,North,10,6.0,11.0,54,0.00,,,0.00,,2013-02-15 21:01:00,
2013-02-15 14:11:00,39.0,23.0,-100.00,North,10,6.0,11.0,54,0.00,,,0.00,,2013-02-15 21:11:00,
2013-02-15 14:42:00,40.0,24.0,-100.00,NNE,18,6.0,11.0,52,0.00,,,0.00,,2013-02-15 21:42:00,
2013-02-15 14:52:00,40.0,24.0,-100.00,NNE,18,6.0,11.0,52,0.00,,,0.00,,2013-02-15 21:52:00,
2013-02-15 15:02:00,40.0,24.0,-100.00,NNE,18,6.0,11.0,52,0.00,,,0.00,,2013-02-15 22:02:00,
2013-02-15 15:11:00,40.0,24.0,-100.00,NNE,18,6.0,11.0,52,0.00,,,0.00,,2013-02-15 22:11:00,
2013-02-15 15:41:00,41.0,25.0,-100.00,NE,36,5.0,10.0,52,0.00,,,0.00,,2013-02-15 22:41:00,
2013-02-15 15:52:00,41.0,25.0,-100.00,NE,36,5.0,10.0,52,0.00,,,0.00,,2013-02-15 22:52:00,
2013-02-15 16:02:00,41.0,25.0,-100.00,NE,36,5.0,10.0,52,0.00,,,0.00,,2013-02-15 23:02:00,
2013-02-15 16:11:00,41.0,25.0,-100.00,NE,36,5.0,10.0,52,0.00,,,0.00,,2013-02-15 23:11:00,
2013-02-15 16:52:00,41.0,25.0,-100.00,NE,48,7.0,14.0,53,0.00,,,0.00,,2013-02-15 23:52:00,
2013-02-15 17:02:00,41.0,25.0,-100.00,NE,48,7.0,14.0,53,0.00,,,0.00,,2013-02-16 00:02:00,
2013-02-15 17:11:00,41.0,25.0,-100.00,NE,48,7.0,14.0,53,0.00,,,0.00,,2013-02-16 00:11:00,
2013-02-15 17:41:00,40.0,25.0,-100.00,ENE,57,4.0,7.0,56,0.00,,,0.00,,2013-02-16 00:41:00,
2013-02-15 17:52:00,40.0,25.0,-100.00,ENE,57,4.0,7.0,56,0.00,,,0.00,,2013-02-16 00:52:00,
2013-02-15 18:02:00,40.0,25.0,-100.00,ENE,57,4.0,7.0,56,0.00,,,0.00,,2013-02-16 01:02:00,
2013-02-15 18:11:00,40.0,25.0,-100.00,ENE,57,4.0,7.0,56,0.00,,,0.00,,2013-02-16 01:11:00,
2013-02-15 18:41:00,31.0,25.0,-100.00,West,280,3.0,5.0,79,0.00,,,0.00,,2013-02-16 01:41:00,
2013-02-15 18:52:00,31.0,25.0,-100.00,West,280,3.0,5.0,79,0.00,,,0.00,,2013-02-16 01:52:00,
2013-02-15 19:01:00,31.0,25.0,-100.00,West,280,3.0,5.0,79,0.00,,,0.00,,2013-02-16 02:01:00,
2013-02-15 19:11:00,31.0,25.0,-100.00,West,280,3.0,5.0,79,0.00,,,0.00,,2013-02-16 02:11:00,
2013-02-15 19:42:00,29.0,26.0,-100.00,West,260,3.0,5.0,89,0.00,,,0.00,,2013-02-16 02:42:00,
2013-02-15 19:52:00,29.0,26.0,-100.00,West,260,3.0,5.0,89,0.00,,,0.00,,2013-02-16 02:52:00,
2013-02-15 20:01:00,29.0,26.0,-100.00,West,260,3.0,5.0,89,0.00,,,0.00,,2013-02-16 03:01:00,
2013-02-15 20:11:00,29.0,26.0,-100.00,West,260,3.0,5.0,89,0.00,,,0.00,,2013-02-16 03:11:00,
2013-02-15 20:41:00,26.0,23.0,-100.00,SW,234,2.0,4.0,89,0.01,,,0.01,,2013-02-16 03:41:00,
2013-02-15 20:52:00,26.0,23.0,-100.00,SW,234,2.0,4.0,89,0.01,,,0.01,,2013-02-16 03:52:00,
2013-02-15 21:01:00,26.0,23.0,-100.00,SW,234,2.0,4.0,89,0.01,,,0.01,,2013-02-16 04:01:00,
2013-02-15 21:11:00,26.0,23.0,-100.00,SW,234,2.0,4.0,89,0.01,,,0.01,,2013-02-16 04:11:00,
2013-02-15 21:41:00,25.0,23.0,-100.00,WNW,292,0.0,2.0,92,0.00,,,0.01,,2013-02-16 04:41:00,
2013-02-15 21:52:00,25.0,23.0,-100.00,WNW,292,0.0,2.0,92,0.00,,,0.01,,2013-02-16 04:52:00,
2013-02-15 22:01:00,25.0,23.0,-100.00,WNW,292,0.0,2.0,92,0.00,,,0.01,,2013-02-16 05:01:00,
2013-02-15 22:11:00,25.0,23.0,-100.00,WNW,292,0.0,2.0,92,0.00,,,0.01,,2013-02-16 05:11:00,
2013-02-15 22:42:00,24.0,22.0,-100.00,SSW,197,2.0,3.0,90,-99.99,,,0.00,,2013-02-16 05:42:00,
2013-02-15 22:52:00,24.0,22.0,-100.00,SSW,197,2.0,3.0,90,-99.99,,,0.00,,2013-02-16 05:52:00,
2013-02-15 23:01:00,24.0,22.0,-100.00,SSW,197,2.0,3.0,90,-99.99,,,0.00,,2013-02-16 06:01:00,
2013-02-15 23:11:00,24.0,22.0,-100.00,SSW,197,2.0,3.0,90,-99.99,,,0.00,,2013-02-16 06:11:00,
2013-02-15 23:42:00,25.0,23.0,-100.00,WSW,254,3.0,5.0,91,0.01,,,0.01,,2013-02-16 06:42:00,
2013-02-15 23:52:00,25.0,23.0,-100.00,WSW,254,3.0,5.0,91,0.01,,,0.01,,2013-02-16 06:52:00,